Time,TemperatureF,DewpointF,PressureIn,WindDirection,WindDirectionDegrees,WindSpeedMPH,WindSpeedGustMPH,Humidity,HourlyPrecipIn,Conditions,Clouds,dailyrainin,SoftwareType,DateUTC
2013-10-03 00:13:00,70.0,69.0,30.07,East,90,0.0,1.0,96,0.00,,,0.35,,2013-10-03 05:13:00,
2013-10-03 00:23:00,69.0,68.0,30.07,East,90,0.0,0.0,96,0.00,,,0.35,,2013-10-03 05:23:00,
2013-10-03 00:43:00,69.0,68.0,30.06,East,90,0.0,0.0,96,0.00,,,0.35,,2013-10-03 05:43:00,
2013-10-03 00:52:00,69.0,68.0,30.06,East,90,0.0,0.0,96,0.00,,,0.35,,2013-10-03 05:52:00,
2013-10-03 01:12:00,69.0,68.0,30.06,East,90,0.0,0.0,96,0.00,,,0.35,,2013-10-03 06:12:00,
2013-10-03 01:22:00,69.0,68.0,30.06,East,90,0.0,0.0,97,0.00,,,0.35,,2013-10-03 06:22:00,
2013-10-03 01:42:00,69.0,68.0,30.06,East,90,0.0,0.0,97,0.00,,,0.35,,2013-10-03 06:42:00,
2013-10-03 01:52:00,69.0,68.0,30.06,South,184,0.0,1.0,97,0.00,,,0.35,,2013-10-03 06:52:00,
2013-10-03 02:11:00,69.0,68.0,30.06,South,184,0.0,0.0,97,0.00,,,0.35,,2013-10-03 07:11:00,
2013-10-03 02:22:00,69.0,68.0,30.06,South,184,0.0,1.0,97,0.00,,,0.35,,2013-10-03 07:22:00,
2013-10-03 02:42:00,69.0,68.0,30.06,South,184,0.0,0.0,97,0.00,,,0.35,,2013-10-03 07:42:00,
2013-10-03 02:52:00,69.0,68.0,30.05,South,184,0.0,0.0,97,0.00,,,0.35,,2013-10-03 07:52:00,
2013-10-03 03:12:00,70.0,69.0,30.05,South,184,0.0,1.0,97,0.00,,,0.35,,2013-10-03 08:12:00,
2013-10-03 03:22:00,70.0,69.0,30.05,South,184,0.0,0.0,97,0.00,,,0.35,,2013-10-03 08:22:00,
2013-10-03 03:42:00,70.0,69.0,30.05,South,184,0.0,0.0,97,0.00,,,0.35,,2013-10-03 08:42:00,
2013-10-03 03:52:00,70.0,69.0,30.05,South,184,0.0,0.0,97,0.00,,,0.35,,2013-10-03 08:52:00,
2013-10-03 04:12:00,70.0,69.0,30.05,South,184,0.0,0.0,97,0.00,,,0.35,,2013-10-03 09:12:00,
2013-10-03 04:22:00,70.0,69.0,30.05,South,184,0.0,0.0,97,0.00,,,0.35,,2013-10-03 09:22:00,
2013-10-03 04:43:00,69.0,68.0,30.05,South,184,0.0,1.0,97,0.00,,,0.35,,2013-10-03 09:43:00,
2013-10-03 04:53:00,69.0,68.0,30.05,South,184,0.0,0.0,97,0.00,,,0.35,,2013-10-03 09:53:00,
2013-10-03 05:13:00,70.0,69.0,30.05,South,184,0.0,1.0,97,0.00,,,0.35,,2013-10-03 10:13:00,
2013-10-03 05:23:00,70.0,69.0,30.05,South,184,0.0,2.0,97,0.00,,,0.35,,2013-10-03 10:23:00,
2013-10-03 05:43:00,70.0,69.0,30.05,SSE,148,0.0,1.0,97,0.01,,,0.36,,2013-10-03 10:43:00,
2013-10-03 05:52:00,70.0,69.0,30.06,South,184,0.0,2.0,96,0.01,,,0.36,,2013-10-03 10:52:00,
2013-10-03 06:12:00,70.0,69.0,30.06,South,184,0.0,1.0,96,0.01,,,0.36,,2013-10-03 11:12:00,
2013-10-03 06:23:00,70.0,69.0,30.06,South,184,0.0,1.0,96,0.01,,,0.36,,2013-10-03 11:23:00,
2013-10-03 06:42:00,69.0,68.0,30.07,South,184,0.0,0.0,96,0.00,,,0.36,,2013-10-03 11:42:00,
2013-10-03 06:52:00,69.0,68.0,30.07,South,184,0.0,0.0,96,0.01,,,0.37,,2013-10-03 11:52:00,
2013-10-03 07:12:00,69.0,68.0,30.07,SE,137,0.0,1.0,96,0.01,,,0.37,,2013-10-03 12:12:00,
2013-10-03 07:22:00,69.0,68.0,30.07,ENE,68,0.0,1.0,96,0.01,,,0.37,,2013-10-03 12:22:00,
2013-10-03 07:42:00,69.0,68.0,30.07,ENE,68,0.0,1.0,96,0.01,,,0.37,,2013-10-03 12:42:00,
2013-10-03 07:52:00,69.0,68.0,30.07,ENE,68,0.0,1.0,97,0.00,,,0.37,,2013-10-03 12:52:00,
2013-10-03 08:11:00,69.0,68.0,30.08,ENE,75,0.0,2.0,97,0.00,,,0.37,,2013-10-03 13:11:00,
2013-10-03 08:22:00,70.0,69.0,30.08,ENE,75,0.0,1.0,96,0.00,,,0.37,,2013-10-03 13:22:00,
2013-10-03 08:42:00,70.0,69.0,30.09,ENE,75,0.0,1.0,96,0.00,,,0.37,,2013-10-03 13:42:00,
2013-10-03 08:52:00,70.0,69.0,30.09,ENE,75,0.0,1.0,96,0.00,,,0.35,,2013-10-03 13:52:00,
2013-10-03 09:11:00,71.0,70.0,30.09,ENE,75,0.0,1.0,96,0.00,,,0.35,,2013-10-03 14:11:00,
2013-10-03 09:22:00,71.0,69.0,30.09,SSW,209,0.0,2.0,95,0.00,,,0.35,,2013-10-03 14:22:00,
2013-10-03 09:42:00,72.0,70.0,30.09,SSW,210,0.0,4.0,93,0.00,,,0.35,,2013-10-03 14:42:00,
2013-10-03 09:52:00,72.0,69.0,30.09,SW,219,1.0,4.0,91,0.00,,,0.21,,2013-10-03 14:52:00,
2013-10-03 10:11:00,73.0,70.0,30.09,SSW,194,1.0,5.0,90,0.00,,,0.21,,2013-10-03 15:11:00,
2013-10-03 10:22:00,74.0,71.0,30.09,SSW,212,2.0,5.0,89,0.00,,,0.21,,2013-10-03 15:22:00,
2013-10-03 10:43:00,75.0,71.0,30.09,SSW,211,1.0,5.0,86,0.00,,,0.21,,2013-10-03 15:43:00,
2013-10-03 10:53:00,76.0,70.0,30.09,WSW,238,2.0,8.0,82,0.00,,,0.20,,2013-10-03 15:53:00,
2013-10-03 11:12:00,77.0,70.0,30.08,SW,220,2.0,7.0,79,0.00,,,0.20,,2013-10-03 16:12:00,
2013-10-03 11:23:00,78.0,70.0,30.07,WSW,255,4.0,7.0,76,0.00,,,0.20,,2013-10-03 16:23:00,
2013-10-03 11:42:00,79.0,70.0,30.07,SSW,210,2.0,6.0,73,0.00,,,0.20,,2013-10-03 16:42:00,
2013-10-03 11:53:00,79.0,69.0,30.07,SW,217,1.0,6.0,72,0.00,,,0.20,,2013-10-03 16:53:00,
2013-10-03 12:12:00,80.0,70.0,30.07,WNW,303,0.0,6.0,71,0.00,,,0.20,,2013-10-03 17:12:00,
2013-10-03 12:22:00,80.0,68.0,30.07,South,186,1.0,6.0,68,0.00,,,0.20,,2013-10-03 17:22:00,
2013-10-03 12:42:00,81.0,69.0,30.06,SW,225,3.0,8.0,68,0.00,,,0.20,,2013-10-03 17:42:00,
2013-10-03 12:52:00,81.0,69.0,30.06,ESE,115,4.0,11.0,67,0.00,,,0.20,,2013-10-03 17:52:00,
2013-10-03 13:12:00,82.0,69.0,30.05,NE,34,2.0,7.0,65,0.00,,,0.20,,2013-10-03 18:12:00,
2013-10-03 13:22:00,82.0,69.0,30.05,SE,140,2.0,7.0,64,0.00,,,0.20,,2013-10-03 18:22:00,
2013-10-03 13:42:00,83.0,69.0,30.04,WSW,237,2.0,9.0,63,0.00,,,0.20,,2013-10-03 18:42:00,
2013-10-03 13:52:00,83.0,69.0,30.04,SSE,160,3.0,7.0,62,0.00,,,0.20,,2013-10-03 18:52:00,
2013-10-03 14:11:00,83.0,70.0,30.03,SSW,207,2.0,8.0,64,0.00,,,0.20,,2013-10-03 19:11:00,
2013-10-03 14:22:00,83.0,69.0,30.03,SSW,197,0.0,8.0,63,0.00,,,0.20,,2013-10-03 19:22:00,
2013-10-03 14:42:00,83.0,69.0,30.02,South,184,3.0,7.0,62,0.00,,,0.20,,2013-10-03 19:42:00,
2013-10-03 14:52:00,82.0,68.0,30.02,SSW,213,3.0,7.0,63,0.00,,,0.20,,2013-10-03 19:52:00,
2013-10-03 15:12:00,83.0,68.0,30.02,SSW,192,4.0,8.0,61,0.00,,,0.20,,2013-10-03 20:12:00,
2013-10-03 15:21:00,84.0,67.0,30.01,NNE,12,4.0,9.0,56,0.00,,,0.20,,2013-10-03 20:21:00,
2013-10-03 15:42:00,83.0,67.0,30.01,SW,221,3.0,8.0,58,0.00,,,0.20,,2013-10-03 20:42:00,
2013-10-03 15:52:00,83.0,66.0,30.00,SSW,206,3.0,7.0,57,0.00,,,0.20,,2013-10-03 20:52:00,
2013-10-03 16:12:00,83.0,67.0,30.00,SSW,205,3.0,9.0,58,0.00,,,0.20,,2013-10-03 21:12:00,
2013-10-03 16:21:00,83.0,67.0,30.00,SSW,198,4.0,8.0,58,0.00,,,0.20,,2013-10-03 21:21:00,
2013-10-03 16:43:00,82.0,67.0,29.99,South,185,4.0,11.0,60,0.00,,,0.20,,2013-10-03 21:43:00,
2013-10-03 16:54:00,82.0,67.0,29.99,South,182,2.0,8.0,61,0.00,,,0.20,,2013-10-03 21:54:00,
2013-10-03 17:13:00,81.0,66.0,29.99,South,175,4.0,9.0,61,0.00,,,0.20,,2013-10-03 22:13:00,
2013-10-03 17:23:00,81.0,67.0,30.00,SSW,205,3.0,9.0,62,0.00,,,0.20,,2013-10-03 22:23:00,
2013-10-03 17:43:00,81.0,67.0,29.99,South,175,2.0,8.0,62,0.00,,,0.20,,2013-10-03 22:43:00,
2013-10-03 17:54:00,80.0,66.0,29.99,SSW,202,2.0,7.0,63,0.00,,,0.03,,2013-10-03 22:54:00,
2013-10-03 18:12:00,80.0,67.0,29.99,South,191,1.0,7.0,65,0.00,,,0.03,,2013-10-03 23:12:00,
2013-10-03 18:22:00,79.0,67.0,29.99,South,191,0.0,4.0,66,0.00,,,0.03,,2013-10-03 23:22:00,
2013-10-03 18:43:00,78.0,67.0,29.99,South,188,0.0,4.0,68,0.00,,,0.03,,2013-10-03 23:43:00,
2013-10-03 18:52:00,78.0,67.0,29.99,SSW,205,0.0,3.0,69,0.00,,,0.03,,2013-10-03 23:52:00,
2013-10-03 19:12:00,77.0,66.0,29.99,SSE,157,0.0,3.0,70,0.00,,,0.03,,2013-10-04 00:12:00,
2013-10-03 19:22:00,76.0,67.0,29.99,SSE,159,0.0,1.0,73,0.00,,,0.03,,2013-10-04 00:22:00,
2013-10-03 19:42:00,75.0,66.0,30.00,East,89,0.0,1.0,74,0.00,,,0.03,,2013-10-04 00:42:00,
2013-10-03 19:52:00,74.0,66.0,30.00,East,89,0.0,1.0,76,0.00,,,0.03,,2013-10-04 00:52:00,
2013-10-03 20:12:00,73.0,66.0,30.01,SE,131,0.0,0.0,79,0.00,,,0.03,,2013-10-04 01:12:00,
2013-10-03 20:22:00,72.0,66.0,30.01,SSE,168,0.0,1.0,81,0.00,,,0.03,,2013-10-04 01:22:00,
2013-10-03 20:32:00,72.0,66.0,30.01,SSE,168,0.0,1.0,81,0.00,,,0.03,,2013-10-04 01:32:00,
2013-10-03 20:42:00,72.0,66.0,30.01,SSE,168,0.0,1.0,81,0.00,,,0.03,,2013-10-04 01:42:00,
2013-10-03 20:52:00,71.0,66.0,30.02,SSE,168,0.0,0.0,83,0.00,,,0.02,,2013-10-04 01:52:00,
2013-10-03 21:12:00,70.0,65.0,30.02,SSE,168,0.0,0.0,85,0.00,,,0.02,,2013-10-04 02:12:00,
2013-10-03 21:22:00,70.0,66.0,30.02,SSE,168,0.0,0.0,86,0.00,,,0.02,,2013-10-04 02:22:00,
2013-10-03 21:43:00,69.0,65.0,30.02,SSE,168,0.0,0.0,87,0.00,,,0.02,,2013-10-04 02:43:00,
2013-10-03 21:52:00,69.0,65.0,30.03,SSE,168,0.0,0.0,88,0.00,,,0.02,,2013-10-04 02:52:00,
2013-10-03 22:12:00,68.0,65.0,30.03,SSE,168,0.0,0.0,89,0.00,,,0.02,,2013-10-04 03:12:00,
2013-10-03 22:22:00,68.0,65.0,30.03,SSE,168,0.0,0.0,89,0.00,,,0.02,,2013-10-04 03:22:00,
2013-10-03 22:44:00,68.0,65.0,30.03,ENE,71,0.0,2.0,89,0.00,,,0.02,,2013-10-04 03:44:00,
2013-10-03 22:57:00,68.0,65.0,30.03,ENE,71,0.0,0.0,89,0.00,,,0.02,,2013-10-04 03:57:00,
2013-10-03 23:58:00,69.0,65.0,30.03,SSW,193,0.0,2.0,87,0.00,,,0.02,,2013-10-04 04:58:00,